Location: ????????
(56.1167°N, 38.6333°E)
Time: 21:01:18
(UTC+00:00)

Cosmos 1943 Rocket - Pass Details

Date: 18 November 2025
Orbit: 812 x 841 km, 71.0° (Epoch: 06 December)

Event Time Altitude Azimuth Distance (km) Brightness Sun altitude
Rises 15:42:47 0° 213° (SSW) 3,373 5.9 -20.4°
Reaches altitude 10° 15:45:13 10° 213° (SSW) 2,439 5.1 -20.8°
Maximum altitude 15:50:50 89° 301° (WNW) 836 2.1 -21.5°
Enters shadow 15:53:43 30° 34° (NNE) 1,448 3.1 -21.9°
